sat.trackr.live / text

‹ back to catalog

STARLINK-5364

NORAD 55491 · 2023-015AU

PAYLOAD ACTIVE UNKNOWN

§ Identity

Operator
Country
US
Launch date
2023-02-02
Launch site
AFETR
Launch vehicle
Mass (kg)
RCS (m²)

Purposes: comms

External: N2YO · Heavens-Above · Gunter

§ Orbital elements

Epoch: 2026-09-20T19:01:43.379616Z

Period
94.27 min
Inclination
43.0045°
Eccentricity
0.0001196
Mean motion
15.27575383 rev/d
Perigee alt
482.2 km
Apogee alt
483.9 km
Semi-major
6,861.2 km
B*
1.4106e-5
RAAN
299.5667°
Arg perigee
275.2301°
Mean anomaly
84.8414°
Rev number
20,064

§ Raw data

STARLINK-53641 55491U 23015AU  26263.79286319  .00000126  00000+0  14106-4 0  99932 55491  43.0045 299.5667 0001196 275.2301  84.8414 15.27575383200640

JSON: /api/v1/satellites/55491 · /tle

For live sub-satellite position, see the globe view (requires WebGL).

§ Visibility from observer

Set your observer location to see the next 7 days of passes ≥ 10°. The values pass through the URL so the page stays shareable.

No JS? Fill the form by hand. The geolocation button needs JavaScript.